Regional Weather Roundup
Issued by NWS

Home | Current Version | Previous Version | Graphics & Text | Print | Product List | Glossary On
Versions: 1 2 3 4 5 6 7 8 9 10 11 12 13 14 15 16 17 18 19 20 21 22 23 24 25 26 27 28 29 30 31 32 33 34 35 36 37 38 39 40 41 42 43 44 45 46 47 48 49 50
000
ASUS43 KDMX 241506
RWRIA

WEATHER ROUNDUP FOR IOWA
NATIONAL WEATHER SERVICE DES MOINES IA
900 AM CST TUE JAN 24 2017

NOTE: "FAIR" INDICATES FEW OR NO CLOUDS BELOW 12,000 FEET WITH NO
SIGNIFICANT WEATHER AND/OR OBSTRUCTIONS TO VISIBILITY.

* - THESE STATIONS ARE NOT NWS STATIONS...THUS NOT UNDER NWS
QUALITY CONTROL.  THEY ALSO DO NOT REPORT WEATHER SUCH
AS PRECIPITATION OR FOG.

IAZ001>003-012>014-020>022-031>034-043>046-241600-
   NORTHWEST IOWA

CITY           SKY/WX    TMP DP  RH WIND       PRES   REMARKS
CARROLL *      CLOUDY    32  32 100 E15       29.80S WCI  22
CHEROKEE *     CLOUDY    31  30  96 E14G20    29.79F WCI  21
DENISON *      CLOUDY    30  30 100 E16G22    29.76R FOG     WCI  19
LE MARS *      CLOUDY    32  30  93 E13G21    29.76F WCI  22
ORANGE CITY *  CLOUDY    30  28  93 E15G21    29.76F WCI  19
SHELDON *      CLOUDY    30  30 100 E15       29.77F WCI  19
SIOUX CITY     CLOUDY    33  29  85 E17       29.76S WCI  22
SPENCER        CLOUDY    31  29  92 E14       29.82S WCI  21
STORM LAKE *   CLOUDY    30  28  93 E18       29.78F FOG     WCI  18
$$

IAZ055>058-069>071-079>083-090>094-241600-
   SOUTHWEST IOWA

CITY           SKY/WX    TMP DP  RH WIND       PRES   REMARKS
ATLANTIC *     CLOUDY    30  30 100 E13G20    29.77F FOG     WCI  20
AUDUBON *      CLOUDY    30  27  86 E14       29.78F FOG     WCI  20
CLARINDA *     CLOUDY    32  32 100 E13G20    29.76F WCI  22
COUNCIL BLFS * CLOUDY    30  30 100 E15G22    29.73F WCI  19
CRESTON *      FOG       28  30 100 E16       29.78F VSB 1/4 WCI  17
HARLAN  *      CLOUDY    30  30 100 E9        29.80S FOG     WCI  22
LAMONI         CLOUDY    30  28  92 E9        29.78S FOG     WCI  22
RED OAK *      CLOUDY    32  30  93 E13       29.76S WCI  22
SHENANDOAH *   CLOUDY    32  30  93 E14G21    29.75R WCI  22
$$

IAZ047>049-059>061-072>074-084-241600-
   CENTRAL IOWA

CITY           SKY/WX    TMP DP  RH WIND       PRES   REMARKS
AMES           CLOUDY    32  30  92 E8        29.84R WCI  25
ANKENY *       CLOUDY    32  28  86 E10       29.85R WCI  24
BOONE *        CLOUDY    32  32 100 E14       29.81S WCI  22
CHARITON *     CLOUDY    30  30 100 E12       29.81F FOG     WCI  21
DES MOINES     CLOUDY    32  29  88 E9        29.83F FOG     WCI  24
GRINNELL*      CLOUDY    31  29  92 E12       29.84F WCI  22
KNOXVILLE *    CLOUDY    30  28  93 E8G15     29.82F FOG     WCI  23
MARSHALLTOWN   CLOUDY    32  29  88 E10       29.84F WCI  24
NEWTON *       CLOUDY    32  30  93 E9        29.84R WCI  24
PELLA *        CLOUDY    31  29  93 E7        29.86S FOG     WCI  24
PERRY *        CLOUDY    32  30  93 E10       29.82S WCI  24
$$

IAZ004>006-015-016-023>025-035-036-241600-
   NORTH CENTRAL IOWA

CITY           SKY/WX    TMP DP  RH WIND       PRES   REMARKS
ALGONA *       CLOUDY    30  30 100 E10       29.84S WCI  21
CLARION *      CLOUDY    32  32 100 E10G16    29.84F WCI  24
ESTHERVILLE    CLOUDY    30  29  96 E9        29.83F WCI  22
FORT DODGE *   CLOUDY    30  27  86 E13       29.82F WCI  20
MASON CITY     CLOUDY    30  27  88 E9        29.87S WCI  22
FOREST CITY *  CLOUDY    30  30 100 NE8       29.85S WCI  23
WEBSTER CITY * CLOUDY    32 N/A N/A E10       29.81F WCI  24
IOWA FALLS *   CLOUDY    32  29  89 E7        29.85F WCI  26
$$

IAZ007>011-017>019-026>030-037>042-050>054-066-241600-
   NORTHEAST IOWA

CITY           SKY/WX    TMP DP  RH WIND       PRES   REMARKS
CEDAR RAPIDS   CLOUDY    32  28  85 E6        29.86F WCI  26
CHARLES CITY * CLOUDY    30  30 100 E7        29.87S WCI  23
CLINTON *      CLOUDY    33  32  96 W5        29.91R WCI  29
DECORAH *      CLOUDY    32  28  86 CALM      29.86S
DUBUQUE        CLOUDY    32  28  85 SE5       29.88R WCI  27
MONTICELLO *   CLOUDY    32  28  86 SE6       29.89R WCI  26
OELWEIN *      CLOUDY    32  30  93 SE3       29.88R
WATERLOO       CLOUDY    32  27  81 MISG      29.87S
$$

IAZ064-065-067-068-078-241600-
   EAST CENTRAL IOWA

CITY           SKY/WX    TMP DP  RH WIND       PRES   REMARKS
DAVENPORT      CLOUDY    34  29  82 CALM      29.90R
IOWA CITY      CLOUDY    33  28  81 E7        29.90F WCI  27
MUSCATINE *    CLOUDY    34  30  86 CALM      29.90F
QUAD CITIES    CLOUDY    35  31  85 CALM      29.90R
$$

IAZ062-063-075>077-085>089-095>099-241600-
   SOUTHEAST IOWA

CITY           SKY/WX    TMP DP  RH WIND       PRES   REMARKS
BURLINGTON     CLOUDY    32  30  92 E6        29.87F WCI  26
FAIRFIELD *    CLOUDY    32  28  86 E9        29.86S WCI  24
FORT MADISON * CLOUDY    34  30  86 SE6       29.88F WCI  29
KEOKUK *       CLOUDY    34 N/A N/A SE5       29.88S WCI  30
OSKALOOSA *    CLOUDY    31  29  95 E9        29.86S FOG     WCI  22
CENTERVILLE *  CLOUDY    30  30 100 E12       29.83F WCI  21
OTTUMWA        CLOUDY    31  28  89 E9        29.85S WCI  23
WASHINGTON *   CLOUDY    32  30  93 E8        29.88F WCI  25
$$

ABBREVIATIONS USED IN REMARKS
   TC - TEMPERATURES IN CELSIUS
  WCI - WIND CHILL INDEX
   HX - HEAT INDEX
  VSB - VISIBILITY
$$




USA.gov is the U.S. government's official web portal to all federal, state and local government web resources and services.